Weather WX

World > North America > United States > Missouri

Fort Osage, Missouri Regional Weather

Lat: 39.16N, Lon: 94.19W
Wx Zone: MOZ037
Warning FLW WEATHER ALERT - (More Info. Click Here) Warning
Feedback

Fort Osage, MO Regional Weather

Expires:201906180100;;652941
ASUS43 KEAX 180010
RWREAX

WEATHER ROUNDUP FOR EASTERN KANSAS AND NORTHWEST MISSOURI
NATIONAL WEATHER SERVICE KANSAS CITY/PLEASANT HILL MO
700 PM CDT MON JUN 17 2019


KSZ040-057-103>105-MOZ028-029-037-043-180100-
...KANSAS CITY METROPOLITAN AREA...
  
CITY           SKY/WX    TMP DP  RH WIND       PRES   REMARKS
K.C. INTL      MOSUNNY   81  62  52 NE9       29.91S                  
6HR MIN TEMP:  80; 6HR MAX TEMP:  82;                                

K.C. DOWNTOWN  SUNNY     82  63  52 NE8       29.89S                  
6HR MIN TEMP:  82; 6HR MAX TEMP:  86;                                

LEES SUMMIT    SUNNY     78  65  63 E8        29.91S                  
6HR MIN TEMP:  78; 6HR MAX TEMP:  83;                                

OLATHE - IXD   MOSUNNY   77  66  68 SE6       29.92S                  
6HR MIN TEMP:  76; 6HR MAX TEMP:  83;                                

OLATHE - OJC   MOSUNNY   77  67  71 E6        29.91S                  
6HR MIN TEMP:  77; 6HR MAX TEMP:  83;                                

LAWRENCE       SUNNY     83  65  54 NE8       29.89F                  

$$
 

SKY/WX - Weather  TMP - Temperature  DP - Dew Point  RH - Relative Humidity
WIND - Wind Direction/Speed PRES - Barometric Pressure VSB - Visibility
WCI - Wind Chill Index E13G22 Wind - East Wind 13 mph/Gusts of 22 mph